Probability
0 0 0 0 0 0 0 0 0 0 0 0 0 0 0 0 0 0 0 0 0 0 0 0 0 0 0 0 0 0 0 0 0 0 0 0 0 0 0 0 0 0 0
0 0 0 0 0 0 0 0 0 0 0 0 0 0 0 0 0 0 0 0 0 0 0 0 0 0 0 0 0 0 0 0 0 0 0 0 0 0 0 0 0 0 0
0 0 0 0 0 0 0 0 0 0 0 0 0 0 0 0 0 0 0 0 0 0 0 0 0 0 0 0 0 0 0 0 0 0 0 0 0 0 0 0 0 0 0
0 0 0 0 0 0 0 0 0 0 0 0 0 0 0 0 0 0 0 0 0 0 0 0 0 0 0 0 0 0 0 0 0 0 0 0 0 0 0 0 0 0 0
0 0 0 0 0 0 0 0 0 0 0 0 0 0 0 0 0 0 0 0 0 0 0 0 0 0 0 0 0 0 0 0 0 0 0 0 0 0 0 0 0 0 0
0 0 0 0 0 0 0 0 0 0 0 0 0 0 0 0 0 0 0 0 0 0 0 0 0 0 0 0 0 0 0 0 0 0 0 0 0 0 0 0 0 0 0
0 0 0 0 0 0 0 0 0 0 0 0 0 0 0 0 0 0 0 0 0 0 0 0 0 0 0 0 0 0 0 0 0 0 0 0 0 0 0 0 0 0 0
0 0 0 0 0 0 0 0 0 0 0 0 0 0 0 0 0 0 0 0 0 0 0 0 0 0 0 0 0 0 0 0 0 0 0 0 0 0 0 0 0 0 0
0 0 0 0 0 0 0 0 0 0 0 0 0 0 0 0 0 0 0 0 0 0 0 0 0 0 0 0 0 0 0 0 0 0 0 0 0 0 0 0 0 0 0
0 0 0 0 0 0 0 0 0 0 0 0 0 0 0 0 0 0 0 0 0 0 0 0 0 0 0 0 0 0 0 0 0 0 0 0 0 0 0 0 0 0 0
0 0 0 0 0 0 0 0 0 0 0 0 0 0 0 0 0 0 0 0 0 0 0 0 0 0 0 0 0 0 0 0 0 0 0 0 0 0 0 0 0 0 0
0 0 0 0 0 0 0 0 0 0 0 0 0 0 0 0 0 0 0 0 0 0 0 0 0 0 0 0 0 0 0 0 0 0 0 0 0 0 0 0 0 0 0
0 0 0 0 0 0 0 0 0 0 0 0 0 0 0 0 0 0 0 0 0 0 0 0 0 0 0 0 0 0 0 0 0 0 0 0 0 0 0 0 0 0 0
0 0 0 0 0 0 0 0 0 0 0 0 0 0 0 0 0 0 0 0 0 0 0 0 0 0 0 0 0 0 0 0 0 0 0 0 0 0 0 0 0 0 0
0 0 0 0 0 0 0 0 0 0 0 0 0 0 0 0 0 0 0 0 0 0 0 0 0 0 0 0 0 0 0 0 0 0 0 0 0 0 0 0 0 0 0
0 0 0 0 0 0 0 0 0 0 0 0 0 0 0 0 0 0 0 0 0 0 0 0 0 0 0 0 0 0 0 0 0 0 0 0 0 0 0 0 0 0 0
0 0 0 0 0 0 0 0 0 0 0 0 0 0 0 0 0 0 0 0 0 0 0 0 0 0 0 0 0 0 0 0 0 0 0 0 0 0 0 0 0 0 0
0 0 0 0 0 0 0 0 0 0 0 0 0 0 0 0 0 0 0 0 0 0 0 0 0 0 0 0 0 0 0 0 0 0 0 0 0 0 0 0 0 0 0
0 0 0 0 0 0 0 0 0 0 0 0 0 0 0 0 0 0 0 0 0 0 0 0 0 0 0 0 0 0 0 0 0 0 0 0 0 0 0 0 0 0 0
0 0 0 0 0 0 0 0 0 0 0 0 0 0 0 0 0 0 0 0 0 0 0 0 0 0 0 0 0 0 0 0 0 0 0 0 0 0 0 0 0 0 0
0 0 0 0 0 0 0 0 0 0 0 0 0 0 0 0 0 0 0 0 0 0 0 0 0 0 0 0 0 0 0 0 0 0 0 0 0 0 0 0 0 0 0
0 0 0 0 0 0 0 0 0 0 0 0 0 0 0 0 0 0 0 0 0 0 0 0 0 0 0 0 0 0 0 0 0 0 0 0 0 0 0 0 0 0 0
0 0 0 0 0 0 0 0 0 0 0 0 0 0 0 0 0 0 0 0 0 0 0 0 0 0 0 0 0 0 0 0 0 0 0 0 0 0 0 0 0 0 0
0 0 0 0 0 0 0 0 0 0 0 0 0 0 0 0 0 0 0 0 0 0 0 0 0 0 0 0 0 0 0 0 0 0 0 0 0 0 0 0 0 0 0
0 0 0 0 0 0 0 0 0 0 0 0 0 0 0 0 0 0 0 0 0 0 0 0 0 0 0 0 0 0 0 0 0 0 0 0 0 0 0 0 0 0 0
0 0 0 0 0 0 0 0 0 0 0 0 0 0 0 0 0 0 0 0 0 0 0 0 0 0 0 0 0 0 0 0 0 0 0 0 0 0 0 0 0 0 0
Wind_Speed
6 5 4 4 4 3 4 4 4 5 6 6 7 9 10 10 9 8 8 20 23 23 24 23 23 22 22 21 21 21 21 21 21 21 21 21 18 15 13 12 12 12 11
7 7 6 5 5 4 4 5 5 5 5 5 8 9 9 9 10 10 8 12 22 23 24 24 24 23 23 22 22 21 21 22 22 22 22 22 22 20 18 15 14 13 12
8 8 7 6 5 4 5 5 6 5 6 6 8 9 9 9 10 10 9 8 9 18 23 24 24 24 24 23 23 23 22 23 23 23 23 24 24 24 23 20 18 16 14
9 8 7 6 5 5 5 5 4 5 6 6 6 6 7 7 9 9 8 8 7 8 14 23 23 23 24 24 24 23 23 23 23 24 25 25 25 25 24 24 22 20 18
8 8 7 5 5 5 5 5 5 4 5 6 7 6 6 6 6 8 9 8 8 8 7 15 20 21 23 24 24 24 24 23 23 24 25 26 26 26 25 25 24 24 23
8 9 7 6 6 6 6 5 7 6 5 5 8 7 5 5 5 6 7 7 7 9 8 9 8 12 20 23 23 23 24 24 25 25 25 26 26 26 26 26 25 25 24
7 8 8 6 6 6 5 5 5 7 6 3 5 4 4 5 5 4 4 6 8 8 8 8 6 6 8 19 21 23 24 25 26 26 26 27 27 27 27 27 26 26 25
7 8 8 7 6 6 7 6 5 5 4 4 3 3 2 2 3 4 4 6 7 6 7 9 7 8 6 6 14 23 25 26 26 27 27 27 27 27 27 27 27 27 26
7 7 8 7 7 6 6 6 5 6 5 4 4 4 4 1 2 3 3 5 6 5 5 6 7 7 8 7 7 16 24 25 26 26 27 28 28 28 28 28 27 27 27
7 7 8 8 7 6 7 6 5 4 6 4 4 5 4 3 2 3 4 4 6 5 6 6 6 6 6 6 11 19 23 23 25 26 27 27 28 28 28 28 28 27 27
6 7 7 7 7 6 7 7 6 6 4 4 3 3 4 4 4 2 2 4 4 4 4 4 3 4 5 7 7 14 22 23 24 25 26 27 27 28 28 28 28 28 27
5 6 7 7 7 6 7 7 6 8 6 6 4 3 3 3 2 2 1 2 3 4 4 3 2 3 3 6 11 20 21 23 25 25 26 26 27 27 28 28 28 28 28
5 6 7 6 6 6 6 6 7 6 6 6 5 3 3 2 2 2 1 1 3 3 4 3 2 2 4 5 7 21 18 24 25 25 26 26 26 27 27 28 28 28 27
6 7 7 7 7 7 7 6 6 5 5 5 5 4 3 2 2 2 2 1 2 3 3 4 2 1 4 5 11 19 12 23 25 26 25 26 26 27 27 27 27 27 27
7 8 8 8 7 7 7 6 5 5 5 4 4 4 3 2 2 2 1 2 1 3 4 3 3 2 4 5 13 9 10 20 25 25 25 26 26 26 27 27 27 27 27
9 9 8 8 7 7 6 6 5 5 5 4 3 4 3 2 2 1 1 1 2 3 5 4 3 3 5 8 14 10 11 23 21 23 25 26 26 26 27 26 26 26 26
10 10 10 9 8 7 6 6 5 6 5 4 3 4 3 3 2 2 2 2 2 3 6 6 4 4 5 7 10 8 9 9 10 21 25 25 26 26 26 26 27 27 27
10 10 9 9 8 7 7 7 7 6 6 6 5 4 4 3 3 3 2 3 3 4 4 9 6 4 5 8 10 11 10 10 9 20 24 26 26 26 26 27 28 28 27
10 9 9 9 9 8 8 7 7 7 6 6 5 5 5 4 4 3 4 4 3 4 4 6 9 5 5 6 9 10 10 8 10 14 21 23 24 26 27 28 28 28 28
11 11 10 9 8 8 8 8 7 6 6 5 5 5 5 6 6 5 4 5 5 5 5 7 9 8 8 7 7 9 11 8 10 12 16 18 21 25 26 28 28 28 27
11 10 9 8 7 7 8 8 8 7 7 6 6 6 6 8 9 7 6 5 5 5 5 6 8 8 8 8 8 9 11 12 11 9 9 10 12 12 14 19 23 26 27
9 9 9 9 9 8 13 16 11 7 7 7 7 6 6 7 10 13 14 13 10 7 5 5 7 9 10 9 9 10 11 13 13 6 10 14 11 12 11 10 21 28 28
10 10 10 10 10 12 17 17 17 8 7 7 7 6 6 6 7 6 10 14 13 15 15 9 10 10 10 10 12 13 12 13 15 13 13 15 11 12 11 13 26 29 29
10 10 10 10 9 11 17 17 16 9 7 8 8 8 8 7 7 8 7 8 9 9 11 8 8 9 9 10 10 11 10 11 13 11 11 12 12 12 12 11 23 27 26
10 9 8 9 10 11 17 17 16 6 7 9 8 8 9 8 13 15 10 9 9 9 12 15 15 14 17 18 15 7 5 6 10 10 8 7 9 13 12 12 13 21 24
9 8 8 8 9 9 14 17 17 5 7 7 7 8 11 14 15 17 10 8 10 9 6 6 7 9 9 10 14 8 5 6 7 8 5 7 10 11 10 6 9 12 15
Wind_Direction
123 111 100 90 81 79 81 78 73 69 64 62 66 72 71 69 65 59 47 49 48 43 40 36 32 29 27 25 23 20 19 17 15 13 9 5 354 344 334 330 326 324 323
119 112 101 91 82 77 76 77 75 73 65 67 71 74 76 75 71 66 57 47 46 43 39 35 32 29 26 25 23 21 20 20 18 14 10 5 2 355 346 336 326 319 313
111 111 104 95 88 83 81 76 68 65 66 71 74 77 80 77 73 67 60 52 41 39 37 35 30 28 26 24 22 20 20 20 18 15 11 7 2 358 353 344 337 326 317
107 107 102 96 90 82 77 76 68 71 65 74 80 77 78 78 74 67 61 52 44 36 30 32 29 26 24 23 20 18 18 18 17 14 10 5 1 357 354 351 343 336 327
99 103 100 95 90 82 72 79 65 75 78 85 87 77 69 71 69 66 59 49 41 35 27 26 26 23 22 20 17 15 14 12 11 9 5 2 358 355 352 348 345 342 337
101 103 100 93 92 90 79 78 84 71 76 93 93 77 62 62 63 56 53 45 36 29 22 20 17 15 18 17 12 11 9 7 4 2 359 356 353 351 348 345 342 340 337
97 102 105 94 89 89 86 91 95 79 58 53 90 74 44 45 63 52 42 43 31 19 14 12 11 14 9 13 9 8 6 1 358 355 353 350 348 345 343 340 338 336 334
99 105 105 103 95 93 77 67 84 91 61 30 104 118 87 12 16 35 32 39 25 10 8 4 8 13 11 11 8 8 2 356 353 350 348 345 342 340 338 335 334 332 330
92 102 104 103 94 94 93 81 84 102 103 48 47 114 127 167 316 335 14 28 15 4 355 352 8 12 19 19 5 360 357 352 349 346 343 340 337 335 333 331 329 328 326
95 98 101 102 99 97 95 88 80 93 109 99 58 47 82 126 105 333 336 357 359 349 342 348 356 7 23 18 5 357 353 350 347 343 339 336 333 331 329 327 326 324 323
93 98 102 104 102 99 98 95 87 81 84 102 101 92 73 60 68 107 310 325 332 318 323 329 343 5 22 18 359 346 349 346 342 338 334 332 330 328 326 325 323 322 321
104 105 106 105 106 106 104 103 98 93 90 90 88 89 107 108 95 107 239 294 304 299 311 316 344 7 19 11 354 345 345 341 337 334 331 329 327 326 324 323 321 320 319
138 137 124 118 113 112 111 109 103 100 101 103 103 96 97 109 129 138 169 268 292 295 308 308 315 6 10 360 341 341 340 336 333 330 329 327 326 324 322 320 319 319 318
147 143 132 125 123 122 120 113 108 108 109 112 115 117 112 107 110 130 150 179 301 299 284 282 304 352 359 345 331 340 333 330 327 328 327 325 324 322 320 320 319 319 318
145 141 136 132 131 128 127 122 119 123 125 124 128 126 124 125 120 121 128 154 200 293 290 276 289 309 344 329 326 329 326 320 325 325 323 322 321 320 320 318 318 317 315
148 146 143 140 138 135 133 127 130 138 136 140 142 141 140 144 139 137 144 160 179 213 274 272 258 293 318 317 319 323 314 320 320 319 320 318 318 319 318 317 317 316 316
154 156 155 151 148 148 148 146 152 155 154 158 160 163 172 168 165 172 177 192 207 209 263 281 261 299 297 309 315 310 308 305 308 314 314 315 316 317 315 315 314 314 314
161 160 157 155 157 160 163 164 167 171 172 177 182 182 193 187 193 196 200 212 219 220 243 284 293 300 296 305 306 308 308 307 303 307 311 313 313 312 312 312 312 312 312
162 162 162 165 169 172 175 179 177 180 186 190 189 196 202 198 216 214 214 219 224 237 231 265 287 294 294 300 307 304 299 292 299 305 309 308 308 309 310 310 310 310 309
169 171 173 174 176 178 182 183 184 188 194 200 202 206 209 210 221 222 226 225 226 235 240 259 278 291 296 298 297 310 312 308 304 304 301 305 307 308 306 306 306 307 305
175 174 172 176 179 183 191 188 190 192 197 207 214 218 221 226 233 231 231 224 224 234 243 259 278 289 294 307 311 312 307 308 300 292 300 305 304 300 301 302 304 301 302
173 172 181 183 188 198 206 204 197 197 202 209 219 223 228 233 244 252 256 255 245 236 233 245 274 282 292 301 305 305 307 309 308 311 313 307 303 300 300 296 300 304 306
175 182 188 190 199 210 211 211 209 198 204 212 217 221 230 229 228 241 258 265 267 267 261 259 270 278 290 298 302 304 304 304 301 308 309 300 302 300 301 303 308 307 306
184 190 193 197 202 216 218 219 217 206 208 217 219 220 229 235 229 235 240 246 247 250 256 264 266 274 280 289 292 299 305 303 297 296 300 295 301 303 308 306 303 302 306
188 193 192 195 205 219 222 224 222 206 218 226 223 222 229 236 245 248 246 245 252 251 260 265 270 280 290 301 306 307 308 306 302 304 303 287 305 314 305 295 297 309 315
192 190 198 200 207 217 223 227 226 211 223 232 231 233 235 240 248 250 244 240 251 253 245 259 275 291 298 300 302 297 289 287 295 301 310 313 310 320 308 293 309 310 306